Theta_e
342 342 343 342 338 338 339 341 341 338 338 339 339 338 336 335 335 335 335 336 336 337 338 339 340 340 339 339 339 339 340 340 341 341 340 340 340 339
343 341 340 339 337 338 341 341 341 342 338 339 338 335 333 332 332 332 333 334 334 334 335 335 335 335 335 335 336 336 337 338 339 339 338 338 338 338
343 342 342 343 343 342 340 339 340 342 340 339 338 332 329 329 329 329 329 329 330 331 331 331 330 331 331 331 332 332 332 331 330 330 330 332 333 334
336 338 338 340 341 341 341 341 342 342 340 339 334 328 326 326 326 326 324 324 323 324 329 329 329 329 329 328 330 329 330 330 330 330 329 327 327 327
333 333 334 334 334 336 338 337 337 337 337 337 333 328 323 324 323 322 321 321 319 319 320 320 321 322 322 322 321 322 323 323 323 323 323 322 323 323
328 329 331 332 332 333 334 335 334 334 334 334 330 328 326 323 322 319 318 318 317 317 317 318 319 319 319 319 318 318 319 319 319 319 319 319 319 318
325 325 326 328 330 330 332 332 332 332 331 329 327 325 325 324 322 319 316 315 314 314 314 314 315 314 313 314 314 313 313 312 312 312 311 311 310 310
326 325 323 322 323 326 328 331 331 328 326 325 324 324 324 323 321 319 317 317 316 315 313 312 312 310 310 310 309 308 308 307 306 305 305 305 305 306
327 324 322 321 318 322 324 326 326 326 325 325 325 324 324 324 321 320 322 320 315 314 315 312 312 311 309 307 307 307 306 306 305 305 305 305 305 305
322 321 320 319 317 314 315 315 315 318 323 322 322 322 323 322 322 322 320 317 316 316 315 313 312 310 309 307 307 307 307 307 307 308 307 307 306 306
320 319 319 321 320 319 318 315 313 312 311 311 311 312 311 312 317 321 319 318 318 317 316 313 310 309 309 309 309 309 308 308 308 308 307 306 306 306
315 314 316 319 321 322 321 319 317 315 315 312 310 310 309 307 309 312 316 317 319 318 317 316 311 310 309 309 309 309 308 308 307 307 306 306 305 306
315 315 315 315 317 320 319 318 313 313 313 313 313 312 308 305 305 306 307 312 315 312 311 314 314 313 314 311 309 307 307 306 305 305 304 304 304 304
315 312 311 311 311 311 309 308 307 307 308 310 308 306 306 306 307 308 306 306 305 305 309 310 310 312 313 313 312 310 308 309 307 306 305 304 303 303
313 307 306 306 304 305 306 306 306 306 307 306 306 305 305 306 307 308 309 308 307 305 305 308 308 308 308 310 312 311 311 310 310 310 307 306 305 305
307 305 306 305 307 307 307 307 306 306 305 305 305 305 305 304 304 304 305 310 309 308 303 304 306 307 306 305 305 308 309 308 309 310 307 306 306 306
306 306 306 306 307 307 307 307 306 305 305 304 303 303 303 304 304 304 303 304 309 310 307 305 304 303 304 305 304 304 306 306 306 304 303 303 304 305
307 307 309 311 309 309 308 307 304 305 304 303 303 303 303 302 302 302 302 303 304 305 308 307 305 305 305 305 303 302 303 306 306 304 303 302 303 304
306 308 309 308 307 306 306 305 305 303 303 303 303 302 302 302 303 302 303 302 303 305 304 304 303 303 304 305 302 301 301 300 300 302 304 304 302 303
305 306 308 307 307 306 305 305 304 304 304 303 303 303 303 303 302 303 302 302 301 300 301 304 303 303 302 301 303 302 301 301 300 300 301 301 302 303
308 309 308 307 307 306 306 305 304 304 303 303 303 303 303 303 302 302 302 301 301 300 300 303 303 302 300 297 298 299 301 301 301 301 301 300 300 301
307 307 308 307 307 306 306 305 305 304 303 304 303 302 302 303 302 302 302 302 301 301 301 301 302 301 301 301 301 302 302 302 301 301 301 301 299 300
307 306 306 306 305 306 306 306 305 304 304 303 303 303 303 302 303 302 302 302 301 301 300 301 303 301 301 301 301 301 302 303 302 301 302 302 301 298
Wind_Speed
5 10 12 10 12 9 8 11 7 3 0 6 6 10 11 7 4 3 4 6 6 6 6 7 4 2 2 3 3 4 6 11 16 16 18 16 16 19
3 1 1 5 9 9 7 9 5 5 3 3 7 13 7 7 7 6 6 6 8 8 9 10 9 8 6 6 8 9 9 8 5 3 5 5 9 12
17 10 5 2 2 2 2 3 3 4 5 6 9 7 10 10 11 12 13 14 14 11 11 11 10 10 11 10 10 10 11 10 9 9 9 7 5 4
18 16 17 15 14 12 8 9 7 5 5 13 10 10 13 12 13 15 17 17 16 13 10 10 10 11 10 10 9 8 6 7 7 9 10 15 18 18
20 20 18 16 15 12 12 12 10 9 7 12 10 11 15 14 16 15 15 14 14 14 15 16 16 17 19 20 20 19 19 20 20 21 19 17 16 17
21 20 17 16 16 15 15 13 11 13 13 15 14 10 9 9 10 13 14 13 15 14 16 17 19 19 17 16 15 15 14 14 13 12 12 12 13 13
26 25 23 20 16 13 12 10 9 12 13 13 10 10 8 6 4 6 14 15 14 14 16 16 14 15 16 16 15 15 15 16 16 16 16 17 17 18
20 20 21 22 19 18 16 12 11 12 14 15 12 11 8 8 9 12 15 7 3 2 13 14 11 15 15 16 16 17 18 19 20 21 21 21 21 20
17 14 17 14 13 11 14 14 14 14 11 9 13 9 7 5 8 7 4 5 9 14 12 11 9 12 11 13 13 15 15 16 17 17 17 17 16 16
13 12 13 12 12 15 16 16 15 13 10 10 11 12 12 8 4 5 7 13 11 8 6 4 5 5 6 7 8 10 10 10 11 11 12 12 11 11
10 8 9 11 6 8 12 14 15 16 14 14 14 13 10 8 2 5 6 10 4 4 5 5 4 4 2 2 4 5 6 5 6 8 9 8 9 9
9 8 7 8 9 7 6 9 8 5 5 7 8 8 10 12 7 8 6 13 7 4 4 1 6 5 2 1 2 6 6 5 6 8 7 5 6 5
8 8 7 6 5 5 4 4 6 2 2 2 3 6 9 14 15 9 10 9 8 7 3 5 6 6 3 4 4 7 9 7 7 7 5 4 2 2
7 7 8 8 8 9 9 7 7 8 6 3 11 12 8 8 8 10 13 12 12 7 4 4 8 4 4 7 5 8 8 6 6 7 5 3 3 2
7 9 11 10 8 10 11 11 9 15 14 12 10 9 6 5 2 4 3 4 5 7 5 4 7 10 9 5 5 6 7 10 10 8 7 5 4 1
7 6 7 8 9 7 5 8 9 9 10 10 7 4 3 4 3 5 3 6 4 1 8 10 1 5 8 12 13 9 13 7 12 14 9 5 10 9
3 1 2 3 3 3 4 4 3 6 8 9 8 9 8 6 5 4 6 7 5 8 4 3 5 4 4 4 5 7 4 8 12 9 3 2 1 9
4 6 13 9 2 4 2 3 5 4 4 4 6 5 6 7 4 3 5 7 6 3 8 6 2 3 3 2 1 3 8 10 8 5 4 4 2 10
5 6 3 9 8 7 9 5 4 3 3 2 3 4 5 7 7 7 7 6 7 5 5 4 1 8 3 2 2 1 1 0 7 5 9 9 8 11
9 10 4 7 5 4 2 3 5 4 2 2 2 4 6 5 7 11 4 3 6 9 7 6 8 7 5 7 5 7 7 5 6 7 7 8 4 5
11 15 11 6 5 5 6 4 6 6 5 6 7 8 7 7 8 10 9 7 8 10 7 5 9 4 3 5 6 11 12 13 9 5 3 5 7 6
7 7 2 5 7 7 6 7 6 6 7 10 10 6 7 10 8 9 11 10 6 10 12 16 14 9 4 6 9 10 15 16 17 14 11 8 5 4
3 1 2 4 5 7 8 9 9 8 10 11 10 13 13 10 12 11 12 13 12 13 14 11 15 15 13 12 13 15 10 14 21 21 21 16 12 11
Wind_Direction
223 241 253 244 229 227 224 219 209 161 164 53 106 110 119 115 85 38 55 62 56 46 46 62 84 82 49 41 10 312 283 262 259 262 270 262 268 282
57 59 323 230 229 245 225 219 208 186 136 137 104 119 102 80 74 71 92 102 82 76 76 75 74 69 58 51 54 47 49 52 42 352 344 316 296 292
71 71 41 295 194 159 199 193 139 211 141 116 122 120 79 92 92 89 89 88 80 74 77 71 54 46 49 53 66 70 64 59 49 36 18 21 18 7
63 67 59 74 87 84 101 107 125 113 116 124 128 107 101 101 100 97 91 82 73 63 59 64 58 52 46 39 37 47 62 50 67 72 81 89 89 85
68 67 67 67 62 68 73 75 75 79 104 136 123 130 120 121 111 104 96 94 85 77 75 73 67 63 68 71 71 73 77 81 81 87 83 82 81 90
70 70 71 75 78 83 88 89 92 97 105 115 117 115 124 137 119 115 100 95 89 84 83 84 89 87 79 74 70 69 70 73 75 76 77 79 80 86
70 69 68 70 74 77 84 88 99 107 110 113 112 115 112 120 132 135 112 102 87 88 88 80 82 77 72 71 73 75 75 76 80 82 86 90 91 92
83 75 73 71 72 78 78 82 90 96 99 99 101 102 105 117 129 144 139 143 122 67 71 66 71 74 73 73 75 80 82 85 86 87 89 92 93 92
101 86 83 76 59 73 85 87 86 87 92 105 108 108 106 128 136 154 171 158 136 138 99 83 69 75 75 83 82 84 89 89 89 88 88 87 88 90
94 91 86 78 75 73 82 83 80 79 91 95 97 91 88 86 99 143 147 126 130 154 146 132 144 113 104 100 98 98 98 99 95 91 91 90 91 92
93 88 95 78 107 82 82 86 84 80 84 91 92 90 83 57 63 124 139 151 148 174 182 132 165 133 119 110 125 114 113 107 98 97 103 91 84 89
88 90 83 76 84 109 118 105 97 78 82 95 100 106 73 49 71 75 49 200 153 138 162 326 158 148 158 201 178 151 144 137 120 121 126 115 105 109
89 89 81 74 81 88 86 100 102 73 100 347 342 134 74 53 57 53 60 92 145 106 134 200 201 192 218 162 168 170 156 151 138 141 141 138 121 86
97 94 91 83 78 87 87 65 21 348 339 61 122 100 66 53 51 61 76 84 77 77 111 89 90 152 219 175 186 199 188 175 173 164 157 141 116 85
95 105 104 90 87 89 59 40 43 59 84 98 94 89 70 44 26 351 35 94 86 72 76 82 77 72 97 147 199 206 177 216 220 209 201 213 185 183
115 118 120 111 110 95 83 60 55 54 62 57 53 49 129 111 63 38 23 244 238 115 96 55 102 95 82 78 95 134 165 162 193 207 220 270 271 234
106 82 291 259 233 209 149 130 90 72 64 46 36 43 53 70 43 18 2 19 217 212 185 87 88 54 114 57 83 67 129 171 169 157 217 300 208 192
234 306 316 290 126 128 195 204 107 103 79 56 28 11 31 14 346 18 342 339 341 145 187 216 339 244 228 254 342 57 81 192 186 188 200 222 203 190
268 332 23 97 85 73 68 93 120 54 1 34 1 22 351 354 320 316 313 329 33 14 208 221 260 113 104 222 217 196 50 118 215 209 235 243 241 220
301 313 186 130 123 92 52 80 71 34 338 266 308 319 334 324 332 338 349 330 322 323 308 291 216 212 178 185 190 219 242 255 264 261 253 257 269 252
297 295 219 187 184 208 226 243 290 314 308 299 290 270 288 303 315 319 340 305 298 309 286 311 205 199 278 238 220 239 244 233 233 229 267 281 247 207
326 60 177 210 207 212 240 262 252 273 283 290 279 289 267 295 276 295 315 309 308 290 295 305 229 210 220 240 255 265 301 235 229 235 244 263 247 218
149 95 6 9 15 272 266 264 250 262 278 281 296 271 267 279 268 270 277 289 296 300 302 293 231 237 236 251 259 270 244 238 236 239 249 240 245 252